| time (UTC) | temp F | wind direction | speed MPH | gust MPH | rain 1hr in | rain 24hr in | rain mn in | humidity % | barometer mb |
| 20260506014309 | 50 | 71 | 0.0 | 0.0 | 0.09 | 0.43 | 0.43 | 99 | |
| 20260506013805 | 50 | 77 | 0.0 | 0.0 | 0.09 | 0.42 | 0.42 | 99 | |
| 20260506013303 | 50 | 76 | 0.0 | 0.0 | 0.10 | 0.41 | 0.41 | 99 | |
| 20260506012800 | 50 | 151 | 0.0 | 0.0 | 0.15 | 0.41 | 0.41 | 99 | |
| 20260506012257 | 50 | 76 | 0.0 | 0.0 | 0.21 | 0.40 | 0.40 | 99 | |
| 20260506011754 | 50 | 69 | 0.0 | 0.0 | 0.21 | 0.39 | 0.39 | 99 | |
| 20260506011250 | 50 | 150 | 0.0 | 1.0 | 0.20 | 0.38 | 0.38 | 99 | |
| 20260506010748 | 49 | 106 | 0.0 | 0.0 | 0.24 | 0.37 | 0.37 | 98 | |
| 20260506010245 | 49 | 57 | 0.0 | 0.0 | 0.23 | 0.36 | 0.36 | 98 | |
| 20260506005743 | 50 | 83 | 0.0 | 0.0 | 0.24 | 0.36 | 0.36 | 98 | |
| 20260506005239 | 50 | 73 | 0.0 | 0.0 | 0.23 | 0.35 | 0.35 | 98 | |
| 20260506004735 | 49 | 48 | 0.0 | 0.0 | 0.22 | 0.34 | 0.34 | 98 | |
| 20260506004233 | 49 | 42 | 0.0 | 0.0 | 0.21 | 0.33 | 0.33 | 98 | |
| 20260506003728 | 50 | 2 | 0.0 | 1.0 | 0.21 | 0.32 | 0.32 | 98 | |
| 20260506003226 | 50 | 354 | 1.0 | 1.0 | 0.15 | 0.26 | 0.26 | 98 | |
| 20260506002721 | 50 | 278 | 1.0 | 2.0 | 0.09 | 0.20 | 0.20 | 98 | |
| 20260506002218 | 50 | 287 | 1.0 | 1.0 | 0.08 | 0.19 | 0.19 | 98 | |
| 20260506001714 | 50 | 337 | 0.0 | 0.0 | 0.07 | 0.18 | 0.18 | 98 | |
| 20260506001211 | 50 | 337 | 1.0 | 1.0 | 0.02 | 0.13 | 0.13 | 98 | |
| 20260506000708 | 50 | 57 | 0.0 | 1.0 | 0.02 | 0.13 | 0.13 | 98 | |
| 20260506000206 | 50 | 355 | 1.0 | 1.0 | 0.02 | 0.12 | 0.12 | 98 | |
| 20260505235703 | 50 | 351 | 1.0 | 1.0 | 0.02 | 0.12 | 0.12 | 98 | |
| 20260505235201 | 50 | 344 | 1.0 | 1.0 | 0.04 | 0.12 | 0.12 | 97 | |
| 20260505234657 | 50 | 34 | 0.0 | 1.0 | 0.04 | 0.12 | 0.12 | 97 | |
| 20260505234154 | 50 | 118 | 0.0 | 0.0 | 0.04 | 0.11 | 0.11 | 97 | |
| 20260505233651 | 50 | 40 | 0.0 | 0.0 | 0.05 | 0.11 | 0.11 | 97 | |
| 20260505233149 | 50 | 320 | 1.0 | 1.0 | 0.06 | 0.11 | 0.11 | 97 | |
| 20260505232646 | 50 | 51 | 0.0 | 0.0 | 0.06 | 0.11 | 0.11 | 97 | |
| 20260505232144 | 51 | 279 | 1.0 | 2.0 | 0.08 | 0.11 | 0.11 | 97 | |
| 20260505231640 | 51 | 54 | 0.0 | 0.0 | 0.08 | 0.11 | 0.11 | 97 | |
| 20260505231139 | 51 | 276 | 2.0 | 2.0 | 0.08 | 0.11 | 0.11 | 97 | |
| 20260505230637 | 51 | 291 | 1.0 | 1.0 | 0.07 | 0.10 | 0.10 | 96 | |
| 20260505230133 | 51 | 335 | 1.0 | 1.0 | 0.08 | 0.10 | 0.10 | 96 | |
| 20260505225629 | 51 | 28 | 0.0 | 1.0 | 0.06 | 0.08 | 0.08 | 96 | |
| 20260505225125 | 51 | 347 | 0.0 | 1.0 | 0.06 | 0.08 | 0.08 | 96 | |
| 20260505224622 | 51 | 289 | 2.0 | 2.0 | 0.04 | 0.06 | 0.06 | 95 | |
| 20260505224119 | 52 | 293 | 1.0 | 2.0 | 0.04 | 0.06 | 0.06 | 95 | |
| 20260505223617 | 52 | 33 | 1.0 | 1.0 | 0.03 | 0.05 | 0.05 | 94 | |
| 20260505223113 | 54 | 271 | 7.0 | 8.0 | 0.02 | 0.04 | 0.04 | 93 | |
| 20260505222609 | 55 | 277 | 1.0 | 2.0 | 0.01 | 0.03 | 0.03 | 94 | |
| 20260505222105 | 55 | 319 | 2.0 | 3.0 | 0.01 | 0.03 | 0.03 | 93 | |
| 20260505221603 | 55 | 23 | 1.0 | 1.0 | 0.01 | 0.03 | 0.03 | 93 | |
| 20260505221059 | 56 | 292 | 0.0 | 0.0 | 0.01 | 0.03 | 0.03 | 93 | |
| 20260505220556 | 56 | 308 | 1.0 | 2.0 | 0.00 | 0.02 | 0.02 | 93 | |
| 20260505220054 | 56 | 333 | 1.0 | 2.0 | 0.00 | 0.02 | 0.02 | 92 | |
| 20260505215552 | 56 | 291 | 1.0 | 1.0 | 0.00 | 0.02 | 0.02 | 92 | |
| 20260505215049 | 56 | 347 | 2.0 | 2.0 | 0.00 | 0.02 | 0.02 | 92 | |
| 20260505214547 | 56 | 347 | 0.0 | 1.0 | 0.00 | 0.02 | 0.02 | 92 | |
| 20260505214044 | 57 | 331 | 2.0 | 2.0 | 0.00 | 0.02 | 0.02 | 91 | |
| 20260505213542 | 57 | 292 | 2.0 | 2.0 | 0.00 | 0.02 | 0.02 | 91 | |
| 20260505213038 | 57 | 287 | 2.0 | 2.0 | 0.00 | 0.02 | 0.02 | 91 | |
| 20260505212534 | 57 | 289 | 3.0 | 3.0 | 0.00 | 0.02 | 0.02 | 91 | |
| 20260505212032 | 58 | 297 | 2.0 | 2.0 | 0.00 | 0.02 | 0.02 | 90 | |
| 20260505211529 | 58 | 354 | 1.0 | 1.0 | 0.00 | 0.02 | 0.02 | 90 | |
| 20260505211025 | 58 | 318 | 2.0 | 2.0 | 0.00 | 0.02 | 0.02 | 90 | |
| 20260505210522 | 58 | 284 | 2.0 | 2.0 | 0.00 | 0.02 | 0.02 | 90 | |
| 20260505210020 | 58 | 275 | 3.0 | 3.0 | 0.01 | 0.02 | 0.02 | 90 | |
| 20260505205518 | 58 | 25 | 1.0 | 1.0 | 0.02 | 0.02 | 0.02 | 90 | |
| 20260505205015 | 58 | 31 | 0.0 | 0.0 | 0.02 | 0.02 | 0.02 | 89 | |
| 20260505204512 | 59 | 24 | 0.0 | 0.0 | 0.02 | 0.02 | 0.02 | 89 | |
| 20260505204009 | 59 | 327 | 0.0 | 1.0 | 0.02 | 0.02 | 0.02 | 88 | |
| 20260505203506 | 59 | 27 | 0.0 | 0.0 | 0.02 | 0.02 | 0.02 | 88 | |
| 20260505203003 | 59 | 296 | 1.0 | 1.0 | 0.02 | 0.02 | 0.02 | 88 | |
| 20260505202459 | 59 | 47 | 0.0 | 0.0 | 0.02 | 0.02 | 0.02 | 88 | |
| 20260505201954 | 59 | 56 | 0.0 | 0.0 | 0.02 | 0.02 | 0.02 | 88 | |
| 20260505201452 | 59 | 12 | 0.0 | 0.0 | 0.02 | 0.02 | 0.02 | 87 | |
| 20260505200949 | 60 | 113 | 1.0 | 1.0 | 0.02 | 0.02 | 0.02 | 87 | |
| 20260505200447 | 60 | 66 | 0.0 | 0.0 | 0.01 | 0.01 | 0.01 | 85 | |
| 20260505195942 | 61 | 52 | 0.0 | 0.0 | 0.00 | 0.00 | 0.00 | 81 | |
| 20260505195440 | 62 | 298 | 2.0 | 2.0 | 0.00 | 0.00 | 0.00 | 78 | |
| 20260505194937 | 63 | 333 | 2.0 | 3.0 | 0.00 | 0.00 | 0.00 | 76 | |
| 20260505194434 | 63 | 80 | 0.0 | 1.0 | 0.00 | 0.00 | 0.00 | 75 | |
| 20260505193934 | 62 | 307 | 1.0 | 1.0 | 0.00 | 0.00 | 0.00 | 75 | |
| 20260505193432 | 63 | 341 | 2.0 | 2.0 | 0.00 | 0.00 | 0.00 | 74 | |
| 20260505192930 | 63 | 65 | 0.0 | 0.0 | 0.00 | 0.00 | 0.00 | 74 | |
| 20260505192428 | 63 | 341 | 1.0 | 1.0 | 0.00 | 0.00 | 0.00 | 74 | |
| 20260505191925 | 63 | 68 | 0.0 | 0.0 | 0.00 | 0.00 | 0.00 | 74 | |
| 20260505191424 | 63 | 353 | 1.0 | 2.0 | 0.00 | 0.00 | 0.00 | 73 | |
| 20260505190920 | 63 | 259 | 1.0 | 2.0 | 0.00 | 0.00 | 0.00 | 72 | |
| 20260505190415 | 64 | 258 | 1.0 | 1.0 | 0.00 | 0.00 | 0.00 | 72 | |
| 20260505185911 | 64 | 280 | 1.0 | 2.0 | 0.00 | 0.00 | 0.00 | 71 | |
| 20260505185408 | 65 | 54 | 0.0 | 1.0 | 0.00 | 0.00 | 0.00 | 71 | |
| 20260505184904 | 65 | 274 | 2.0 | 3.0 | 0.00 | 0.00 | 0.00 | 70 | |
| 20260505184401 | 65 | 284 | 2.0 | 2.0 | 0.00 | 0.00 | 0.00 | 69 | |
| 20260505183858 | 65 | 214 | 1.0 | 2.0 | 0.00 | 0.00 | 0.00 | 70 | |
| 20260505183354 | 65 | 12 | 4.0 | 6.0 | 0.00 | 0.00 | 0.00 | 70 | |
| 20260505182846 | 65 | 310 | 3.0 | 6.0 | 0.00 | 0.00 | 0.00 | 70 | |
| 20260505182343 | 64 | 271 | 4.0 | 5.0 | 0.00 | 0.00 | 0.00 | 71 | |
| 20260505181839 | 64 | 327 | 3.0 | 5.0 | 0.00 | 0.00 | 0.00 | 71 | |
| 20260505181337 | 64 | 275 | 2.0 | 2.0 | 0.00 | 0.00 | 0.00 | 71 | |
| 20260505180833 | 65 | 284 | 3.0 | 5.0 | 0.00 | 0.00 | 0.00 | 70 | |
| 20260505180330 | 67 | 241 | 3.0 | 3.0 | 0.00 | 0.00 | 0.00 | 67 | |
| 20260505175826 | 67 | 34 | 0.0 | 0.0 | 0.00 | 0.00 | 0.00 | 65 | |
| 20260505175323 | 67 | 278 | 0.0 | 0.0 | 0.00 | 0.00 | 0.00 | 66 | |
| 20260505174819 | 67 | 184 | 0.0 | 1.0 | 0.00 | 0.00 | 0.00 | 65 | |
| 20260505174317 | 68 | 118 | 0.0 | 1.0 | 0.00 | 0.00 | 0.00 | 65 | |
| 20260505173813 | 68 | 347 | 0.0 | 1.0 | 0.00 | 0.00 | 0.00 | 65 | |
| 20260505173309 | 68 | 180 | 1.0 | 1.0 | 0.00 | 0.00 | 0.00 | 64 | |
| 20260505172807 | 68 | 275 | 1.0 | 1.0 | 0.00 | 0.00 | 0.00 | 63 | |
| 20260505172306 | 69 | 158 | 2.0 | 2.0 | 0.00 | 0.00 | 0.00 | 62 | |
| 20260505171758 | 69 | 303 | 0.0 | 1.0 | 0.00 | 0.00 | 0.00 | 62 | |
| 20260505171255 | 69 | 25 | 2.0 | 3.0 | 0.00 | 0.00 | 0.00 | 61 | |
| 20260505170752 | 70 | 293 | 2.0 | 2.0 | 0.00 | 0.00 | 0.00 | 60 | |
| 20260505170249 | 71 | 168 | 2.0 | 5.0 | 0.00 | 0.00 | 0.00 | 62 | |
| 20260505165744 | 71 | 153 | 3.0 | 6.0 | 0.00 | 0.00 | 0.00 | 59 | |
| 20260505165240 | 70 | 288 | 1.0 | 2.0 | 0.00 | 0.00 | 0.00 | 60 | |
| 20260505164736 | 68 | 333 | 1.0 | 1.0 | 0.00 | 0.00 | 0.00 | 64 | |
| 20260505164233 | 68 | 135 | 1.0 | 2.0 | 0.00 | 0.00 | 0.00 | 63 | |
| 20260505163731 | 68 | 163 | 2.0 | 3.0 | 0.00 | 0.00 | 0.00 | 63 | |
| 20260505163230 | 69 | 89 | 4.0 | 7.0 | 0.00 | 0.00 | 0.00 | 61 | |
| 20260505162727 | 70 | 148 | 0.0 | 1.0 | 0.00 | 0.00 | 0.00 | 62 | |
| 20260505162224 | 69 | 142 | 2.0 | 2.0 | 0.00 | 0.00 | 0.00 | 63 | |
| 20260505161720 | 70 | 109 | 2.0 | 3.0 | 0.00 | 0.00 | 0.00 | 63 | |
| 20260505161218 | 70 | 72 | 2.0 | 2.0 | 0.00 | 0.00 | 0.00 | 63 | |
| 20260505160715 | 70 | 181 | 2.0 | 2.0 | 0.00 | 0.00 | 0.00 | 63 | |
| 20260505160213 | 70 | 146 | 7.0 | 10.0 | 0.00 | 0.00 | 0.00 | 63 | |
| 20260505153152 | 66 | 179 | 2.0 | 3.0 | 0.00 | 0.00 | 0.00 | 70 | |
| 20260505152649 | 66 | 170 | 0.0 | 2.0 | 0.00 | 0.00 | 0.00 | 70 | |
| 20260505152145 | 66 | 45 | 0.0 | 1.0 | 0.00 | 0.00 | 0.00 | 70 | |
| 20260505151640 | 66 | 264 | 2.0 | 5.0 | 0.00 | 0.00 | 0.00 | 70 | |
| 20260505151138 | 68 | 11 | 3.0 | 3.0 | 0.00 | 0.00 | 0.00 | 69 | |
| 20260505150633 | 67 | 135 | 0.0 | 0.0 | 0.00 | 0.00 | 0.00 | 70 | |
| 20260505150131 | 66 | 129 | 3.0 | 5.0 | 0.00 | 0.00 | 0.00 | 70 | |
| 20260505140559 | 63 | 73 | 0.0 | 0.0 | 0.00 | 0.00 | 0.00 | 75 | |
| 20260505125013 | 63 | 162 | 2.0 | 3.0 | 0.00 | 0.00 | 0.00 | 72 | |
| 20260505124509 | 63 | 120 | 1.0 | 1.0 | 0.00 | 0.00 | 0.00 | 72 | |
| 20260505124005 | 63 | 61 | 1.0 | 1.0 | 0.00 | 0.00 | 0.00 | 71 | |
| 20260505123502 | 63 | 164 | 2.0 | 3.0 | 0.00 | 0.00 | 0.00 | 70 | |
| 20260505122958 | 64 | 206 | 2.0 | 2.0 | 0.00 | 0.00 | 0.00 | 71 | |
| 20260505122455 | 64 | 183 | 2.0 | 3.0 | 0.00 | 0.00 | 0.00 | 70 | |
| 20260505121952 | 64 | 116 | 1.0 | 2.0 | 0.00 | 0.00 | 0.00 | 70 | |
| 20260505121449 | 64 | 123 | 2.0 | 6.0 | 0.00 | 0.00 | 0.00 | 69 | |
| 20260505120945 | 64 | 212 | 4.0 | 7.0 | 0.00 | 0.00 | 0.00 | 69 | |
| 20260505120442 | 64 | 101 | 1.0 | 1.0 | 0.00 | 0.00 | 0.00 | 69 | |
| 20260505115940 | 64 | 159 | 3.0 | 3.0 | 0.00 | 0.00 | 0.00 | 69 | |
| 20260505115437 | 64 | 158 | 4.0 | 6.0 | 0.00 | 0.00 | 0.00 | 69 | |
| 20260505114936 | 64 | 343 | 2.0 | 2.0 | 0.00 | 0.00 | 0.00 | 69 | |
| 20260505114431 | 64 | 152 | 3.0 | 3.0 | 0.00 | 0.00 | 0.00 | 69 | |
| 20260505113928 | 64 | 250 | 0.0 | 1.0 | 0.00 | 0.00 | 0.00 | 70 | |
| 20260505113425 | 64 | 159 | 3.0 | 5.0 | 0.00 | 0.00 | 0.00 | 70 | |
| 20260505112920 | 64 | 156 | 1.0 | 2.0 | 0.00 | 0.00 | 0.00 | 69 | |
| 20260505112418 | 64 | 113 | 0.0 | 0.0 | 0.00 | 0.00 | 0.00 | 70 | |
| 20260505111914 | 64 | 79 | 2.0 | 2.0 | 0.00 | 0.00 | 0.00 | 69 | |
| 20260505111409 | 63 | 53 | 0.0 | 0.0 | 0.00 | 0.00 | 0.00 | 70 | |
| 20260505110906 | 64 | 186 | 1.0 | 1.0 | 0.00 | 0.00 | 0.00 | 70 | |
| 20260505110403 | 64 | 79 | 3.0 | 6.0 | 0.00 | 0.00 | 0.00 | 69 | |
| 20260505101833 | 64 | 196 | 2.0 | 3.0 | 0.00 | 0.00 | 0.00 | 69 | |
| 20260505101328 | 64 | 134 | 1.0 | 1.0 | 0.00 | 0.00 | 0.00 | 70 | |
| 20260505100824 | 64 | 104 | 2.0 | 3.0 | 0.00 | 0.00 | 0.00 | 69 | |
| 20260505100321 | 64 | 290 | 1.0 | 2.0 | 0.00 | 0.00 | 0.00 | 70 | |
| 20260505095816 | 63 | 95 | 2.0 | 2.0 | 0.00 | 0.00 | 0.00 | 69 | |
| 20260505095315 | 64 | 145 | 0.0 | 1.0 | 0.00 | 0.00 | 0.00 | 69 | |
| 20260505094810 | 64 | 201 | 2.0 | 5.0 | 0.00 | 0.00 | 0.00 | 69 | |
| 20260505094307 | 64 | 148 | 5.0 | 7.0 | 0.00 | 0.00 | 0.00 | 69 | |
| 20260505093803 | 64 | 216 | 1.0 | 2.0 | 0.00 | 0.00 | 0.00 | 70 | |
| 20260505093301 | 63 | 123 | 1.0 | 2.0 | 0.00 | 0.00 | 0.00 | 70 | |
| 20260505092757 | 63 | 128 | 1.0 | 2.0 | 0.00 | 0.00 | 0.00 | 70 | |
| 20260505092255 | 64 | 128 | 4.0 | 7.0 | 0.00 | 0.00 | 0.00 | 69 | |
| 20260505091753 | 64 | 125 | 2.0 | 2.0 | 0.00 | 0.00 | 0.00 | 69 | |
| 20260505091250 | 64 | 87 | 0.0 | 0.0 | 0.00 | 0.00 | 0.00 | 69 | |
| 20260505090748 | 64 | 129 | 5.0 | 8.0 | 0.00 | 0.00 | 0.00 | 69 | |
| 20260505090246 | 64 | 154 | 3.0 | 6.0 | 0.00 | 0.00 | 0.00 | 70 | |
| 20260505085743 | 64 | 213 | 0.0 | 1.0 | 0.00 | 0.00 | 0.00 | 70 | |
| 20260505085242 | 64 | 150 | 1.0 | 2.0 | 0.00 | 0.00 | 0.00 | 70 | |
| 20260505084738 | 64 | 114 | 0.0 | 1.0 | 0.00 | 0.00 | 0.00 | 70 | |
| 20260505084238 | 64 | 191 | 1.0 | 2.0 | 0.00 | 0.00 | 0.00 | 70 | |
| 20260505083734 | 64 | 91 | 0.0 | 1.0 | 0.00 | 0.00 | 0.00 | 69 | |
| 20260505083231 | 64 | 138 | 2.0 | 3.0 | 0.00 | 0.00 | 0.00 | 70 | |
| 20260505082727 | 64 | 166 | 1.0 | 2.0 | 0.00 | 0.00 | 0.00 | 69 | |
| 20260505082224 | 64 | 149 | 1.0 | 2.0 | 0.00 | 0.00 | 0.00 | 70 | |
| 20260505081720 | 64 | 292 | 1.0 | 2.0 | 0.00 | 0.00 | 0.00 | 69 | |
| 20260505081218 | 64 | 37 | 2.0 | 3.0 | 0.00 | 0.00 | 0.00 | 69 | |
| 20260505080714 | 64 | 171 | 2.0 | 3.0 | 0.00 | 0.00 | 0.00 | 69 | |
| 20260505080210 | 64 | 172 | 1.0 | 3.0 | 0.00 | 0.00 | 0.00 | 69 | |
| 20260505075706 | 64 | 95 | 0.0 | 1.0 | 0.00 | 0.00 | 0.00 | 69 | |
| 20260505075204 | 64 | 137 | 1.0 | 2.0 | 0.00 | 0.00 | 0.00 | 69 | |
| 20260505074700 | 64 | 219 | 1.0 | 2.0 | 0.00 | 0.00 | 0.00 | 69 | |
| 20260505074157 | 64 | 139 | 5.0 | 7.0 | 0.00 | 0.00 | 0.00 | 69 | |
| 20260505073655 | 64 | 63 | 4.0 | 6.0 | 0.00 | 0.00 | 0.00 | 69 | |
| 20260505073153 | 64 | 149 | 3.0 | 3.0 | 0.00 | 0.00 | 0.00 | 69 | |
| 20260505072648 | 64 | 166 | 3.0 | 5.0 | 0.00 | 0.00 | 0.00 | 70 | |
| 20260505072145 | 63 | 185 | 2.0 | 2.0 | 0.00 | 0.00 | 0.00 | 70 | |
| 20260505071640 | 63 | 149 | 0.0 | 1.0 | 0.00 | 0.00 | 0.00 | 71 | |
| 20260505071139 | 63 | 175 | 3.0 | 6.0 | 0.00 | 0.00 | 0.00 | 70 | |
| 20260505070635 | 63 | 123 | 1.0 | 1.0 | 0.00 | 0.00 | 0.00 | 71 | |
| 20260505070132 | 63 | 101 | 0.0 | 0.0 | 0.00 | 0.00 | 0.00 | 71 | |
| 20260505065628 | 63 | 171 | 6.0 | 8.0 | 0.00 | 0.00 | 0.00 | 71 | |
| 20260505065124 | 63 | 123 | 2.0 | 2.0 | 0.00 | 0.00 | 0.00 | 71 | |
| 20260505064621 | 63 | 123 | 0.0 | 0.0 | 0.00 | 0.00 | 0.00 | 71 | |
| 20260505064120 | 63 | 86 | 3.0 | 5.0 | 0.00 | 0.00 | 0.00 | 71 | |
| 20260505063617 | 63 | 89 | 0.0 | 0.0 | 0.00 | 0.00 | 0.00 | 71 | |
| 20260505063113 | 63 | 193 | 2.0 | 3.0 | 0.00 | 0.00 | 0.00 | 71 | |
| 20260505062609 | 63 | 130 | 0.0 | 1.0 | 0.00 | 0.00 | 0.00 | 71 | |
| 20260505062107 | 63 | 128 | 1.0 | 1.0 | 0.00 | 0.00 | 0.00 | 72 | |
| 20260505061603 | 63 | 149 | 2.0 | 2.0 | 0.00 | 0.00 | 0.00 | 72 | |
| 20260505061102 | 63 | 127 | 0.0 | 1.0 | 0.00 | 0.00 | 0.00 | 72 | |
| 20260505060559 | 62 | 123 | 1.0 | 1.0 | 0.00 | 0.00 | 0.00 | 74 | |
| 20260505060055 | 62 | 79 | 0.0 | 0.0 | 0.00 | 0.00 | 0.00 | 73 | |
| 20260505055550 | 63 | 50 | 0.0 | 0.0 | 0.00 | 0.00 | 0.00 | 72 | |
| 20260505055048 | 63 | 12 | 0.0 | 1.0 | 0.00 | 0.00 | 0.00 | 71 | |
| 20260505054545 | 63 | 282 | 1.0 | 1.0 | 0.00 | 0.00 | 0.00 | 72 | |
| 20260505054043 | 63 | 88 | 0.0 | 0.0 | 0.00 | 0.00 | 0.00 | 73 | |
| 20260505053539 | 64 | 114 | 1.0 | 1.0 | 0.00 | 0.00 | 0.00 | 72 | |
| 20260505053036 | 64 | 130 | 0.0 | 0.0 | 0.00 | 0.00 | 0.00 | 70 | |
| 20260505052533 | 64 | 160 | 6.0 | 9.0 | 0.00 | 0.00 | 0.00 | 68 | |
| 20260505052031 | 64 | 162 | 1.0 | 1.0 | 0.00 | 0.00 | 0.00 | 69 | |
| 20260505051527 | 64 | 118 | 0.0 | 0.0 | 0.00 | 0.00 | 0.00 | 69 | |
| 20260505051026 | 64 | 230 | 2.0 | 2.0 | 0.00 | 0.00 | 0.00 | 68 | |
| 20260505050524 | 64 | 139 | 0.0 | 0.0 | 0.00 | 0.00 | 0.00 | 69 | |
| 20260505041451 | 64 | 147 | 3.0 | 6.0 | 0.00 | 0.00 | 0.00 | 66 | |
| 20260505040948 | 64 | 195 | 2.0 | 5.0 | 0.00 | 0.00 | 0.00 | 66 | |
| 20260505040446 | 64 | 121 | 0.0 | 0.0 | 0.00 | 0.00 | 0.00 | 66 | |
| 20260505035943 | 64 | 142 | 3.0 | 3.0 | 0.00 | 0.00 | 0.00 | 65 | |
| 20260505035439 | 64 | 154 | 5.0 | 7.0 | 0.00 | 0.00 | 0.00 | 65 | |
| 20260505034936 | 65 | 154 | 2.0 | 5.0 | 0.00 | 0.00 | 0.00 | 66 | |
| 20260505034432 | 64 | 104 | 1.0 | 1.0 | 0.00 | 0.00 | 0.00 | 65 | |
| 20260505033930 | 65 | 80 | 0.0 | 0.0 | 0.00 | 0.00 | 0.00 | 66 | |
| 20260505033426 | 65 | 185 | 1.0 | 2.0 | 0.00 | 0.00 | 0.00 | 64 | |
| 20260505032924 | 65 | 167 | 1.0 | 1.0 | 0.00 | 0.00 | 0.00 | 65 | |
| 20260505032421 | 64 | 73 | 0.0 | 0.0 | 0.00 | 0.00 | 0.00 | 65 | |
| 20260505031918 | 64 | 131 | 2.0 | 2.0 | 0.00 | 0.00 | 0.00 | 66 | |
| 20260505031415 | 65 | 93 | 6.0 | 9.0 | 0.00 | 0.00 | 0.00 | 65 | |
| 20260505030912 | 65 | 164 | 3.0 | 5.0 | 0.00 | 0.00 | 0.00 | 65 | |
| 20260505030408 | 65 | 173 | 3.0 | 5.0 | 0.00 | 0.00 | 0.00 | 65 | |
| 20260505025903 | 65 | 160 | 3.0 | 3.0 | 0.00 | 0.00 | 0.00 | 66 | |
| 20260505025401 | 65 | 187 | 1.0 | 1.0 | 0.00 | 0.00 | 0.00 | 64 | |
| 20260505024900 | 65 | 293 | 0.0 | 1.0 | 0.00 | 0.00 | 0.00 | 64 | |
| 20260505024357 | 65 | 109 | 0.0 | 0.0 | 0.00 | 0.00 | 0.00 | 65 | |
| 20260505023853 | 65 | 73 | 0.0 | 0.0 | 0.00 | 0.00 | 0.00 | 64 | |
| 20260505023350 | 65 | 82 | 2.0 | 2.0 | 0.00 | 0.00 | 0.00 | 64 | |
| 20260505022848 | 65 | 125 | 3.0 | 3.0 | 0.00 | 0.00 | 0.00 | 63 | |
| 20260505022345 | 65 | 146 | 0.0 | 1.0 | 0.00 | 0.00 | 0.00 | 64 | |
| 20260505021842 | 66 | 291 | 0.0 | 1.0 | 0.00 | 0.00 | 0.00 | 63 | |
| 20260505021338 | 66 | 286 | 3.0 | 3.0 | 0.00 | 0.00 | 0.00 | 63 | |
| 20260505020834 | 66 | 160 | 1.0 | 2.0 | 0.00 | 0.00 | 0.00 | 63 | |
| 20260505020330 | 66 | 140 | 1.0 | 2.0 | 0.00 | 0.00 | 0.00 | 63 | |
| 20260505015827 | 66 | 220 | 4.0 | 7.0 | 0.00 | 0.00 | 0.00 | 63 | |
| 20260505015324 | 66 | 192 | 3.0 | 5.0 | 0.00 | 0.00 | 0.00 | 63 | |
| 20260505014821 | 66 | 97 | 1.0 | 1.0 | 0.00 | 0.00 | 0.00 | 63 |